TimeEST,TemperatureF,Dew PointF,Humidity,Sea Level PressureIn,VisibilityMPH,Wind Direction,Wind SpeedMPH,Gust SpeedMPH,PrecipitationIn,Events,Conditions,WindDirDegrees,DateUTC
12:53 AM,70.0,64.0,81,30.19,10.0,SE,4.6,-,N/A,,Clear,130,2013-01-12 05:53:00
1:53 AM,69.1,64.0,84,30.18,10.0,East,3.5,-,N/A,,Clear,100,2013-01-12 06:53:00
2:53 AM,68.0,64.0,87,30.17,10.0,East,4.6,-,N/A,,Clear,100,2013-01-12 07:53:00
3:53 AM,68.0,64.0,87,30.16,10.0,ESE,4.6,-,N/A,,Clear,120,2013-01-12 08:53:00
4:53 AM,66.9,63.0,87,30.15,10.0,ESE,3.5,-,N/A,,Clear,120,2013-01-12 09:53:00
5:53 AM,66.9,63.0,87,30.16,10.0,East,3.5,-,N/A,,Clear,80,2013-01-12 10:53:00
6:53 AM,66.9,63.0,87,30.17,10.0,East,3.5,-,N/A,,Clear,90,2013-01-12 11:53:00
7:53 AM,66.9,63.0,87,30.18,10.0,Calm,Calm,-,N/A,,Clear,0,2013-01-12 12:53:00
8:53 AM,71.1,63.0,75,30.19,10.0,Variable,5.8,-,N/A,,Partly Cloudy,0,2013-01-12 13:53:00
9:53 AM,75.0,63.0,66,30.19,10.0,East,8.1,-,N/A,,Clear,100,2013-01-12 14:53:00
10:53 AM,77.0,64.0,64,30.18,10.0,SE,6.9,17.3,N/A,,Clear,140,2013-01-12 15:53:00
11:53 AM,79.0,64.0,60,30.15,10.0,SSE,10.4,-,N/A,,Scattered Clouds,160,2013-01-12 16:53:00
12:53 PM,81.0,62.1,52,30.12,10.0,Variable,6.9,-,N/A,,Scattered Clouds,0,2013-01-12 17:53:00
1:53 PM,82.0,62.1,51,30.11,10.0,ESE,8.1,17.3,N/A,,Scattered Clouds,110,2013-01-12 18:53:00
2:53 PM,82.9,60.1,46,30.10,10.0,SSE,9.2,-,N/A,,Scattered Clouds,150,2013-01-12 19:53:00
3:53 PM,82.0,60.1,47,30.10,10.0,South,4.6,-,N/A,,Scattered Clouds,170,2013-01-12 20:53:00
4:53 PM,82.0,60.1,47,30.11,10.0,ESE,3.5,-,N/A,,Mostly Cloudy,110,2013-01-12 21:53:00
5:53 PM,81.0,60.1,49,30.12,10.0,ESE,3.5,-,N/A,,Mostly Cloudy,120,2013-01-12 22:53:00
6:53 PM,75.0,66.0,73,30.12,10.0,West,3.5,-,N/A,,Mostly Cloudy,280,2013-01-12 23:53:00
7:53 PM,73.0,64.9,76,30.12,10.0,NNW,3.5,-,N/A,,Scattered Clouds,330,2013-01-13 00:53:00
8:53 PM,71.1,64.9,81,30.11,10.0,Calm,Calm,-,N/A,,Scattered Clouds,0,2013-01-13 01:53:00
9:53 PM,72.0,64.9,78,30.10,10.0,Calm,Calm,-,N/A,,Scattered Clouds,0,2013-01-13 02:53:00
10:53 PM,72.0,63.0,73,30.11,10.0,SE,5.8,-,N/A,,Scattered Clouds,130,2013-01-13 03:53:00
11:53 PM,72.0,63.0,73,30.11,10.0,SE,5.8,-,N/A,,Mostly Cloudy,130,2013-01-13 04:53:00